GW4857 Weather Reports


time (UTC)temp
C
wind
direction
speed
KPH
gust
KPH
rain 1hr
cm
rain 24hr
cm
rain mn
cm
humidity
%
barometer
mb
20260906235008 32 122 1.6 6.4 0.00 0.00 0.00 52 1011.8
20260906234515 32 127 0.0 6.4 0.00 0.00 0.00 52 1011.8
20260906234008 32 132 1.6 6.4 0.00 0.00 0.00 51 1011.8
20260906233512 32 156 1.6 8.0 0.00 0.00 0.00 51 1011.8
20260906233019 33 156 1.6 8.0 0.00 0.00 0.00 51 1011.8
20260906232514 33 145 1.6 8.0 0.00 0.00 0.00 51 1011.9
20260906232015 33 132 1.6 8.0 0.00 0.00 0.00 50 1012.0
20260906231518 33 136 3.2 9.7 0.00 0.00 0.00 50 1011.9
20260906231013 32 136 1.6 9.7 0.00 0.00 0.00 50 1012.0
20260906230515 33 146 1.6 9.7 0.00 0.00 0.00 50 1012.1
20260906230016 33 116 1.6 9.7 0.00 0.00 0.00 50 1012.1
20260906225515 33 122 1.6 9.7 0.00 0.00 0.00 49 1012.2
20260906225016 33 117 1.6 11.3 0.00 0.00 0.00 49 1012.2
20260906224527 33 207 4.8 11.3 0.00 0.00 0.00 49 1012.2
20260906224014 34 158 3.2 11.3 0.00 0.00 0.00 47 1012.1
20260906223520 34 141 4.8 9.7 0.00 0.00 0.00 47 1012.1
20260906223016 34 184 1.6 6.4 0.00 0.00 0.00 46 1012.1
20260906222511 34 177 1.6 8.0 0.00 0.00 0.00 46 1012.1
20260906222014 34 203 1.6 11.3 0.00 0.00 0.00 46 1012.2
20260906221523 34 217 3.2 11.3 0.00 0.00 0.00 47 1012.3
20260906221017 34 161 0.0 6.4 0.00 0.00 0.00 46 1012.3
20260906220518 34 161 0.0 6.4 0.00 0.00 0.00 46 1012.3
20260906220024 34 196 1.6 8.0 0.00 0.00 0.00 45 1012.4
20260906215515 34 193 1.6 8.0 0.00 0.00 0.00 46 1012.4
20260906215008 34 191 3.2 6.4 0.00 0.00 0.00 45 1012.4
20260906214510 34 189 1.6 6.4 0.00 0.00 0.00 45 1012.4
20260906214007 35 206 0.0 6.4 0.00 0.00 0.00 43 1012.5
20260906213509 35 206 1.6 6.4 0.00 0.00 0.00 46 1012.6
20260906213016 35 225 1.6 6.4 0.00 0.00 0.00 45 1012.7
20260906212509 34 209 0.0 4.8 0.00 0.00 0.00 49 1012.7
20260906212011 33 209 0.0 6.4 0.00 0.00 0.00 48 1012.8
20260906211519 33 210 1.6 6.4 0.00 0.00 0.00 47 1012.8
20260906211016 33 55 0.0 6.4 0.00 0.00 0.00 47 1012.9
20260906210512 33 55 0.0 6.4 0.00 0.00 0.00 45 1013.0
20260906210028 33 127 0.0 4.8 0.00 0.00 0.00 47 1013.1
20260906205508 33 66 1.6 4.8 0.00 0.00 0.00 47 1013.1
20260906205010 33 204 0.0 8.0 0.00 0.00 0.00 49 1013.1
20260906204531 33 203 1.6 8.0 0.00 0.00 0.00 47 1013.3
20260906204009 33 86 0.0 4.8 0.00 0.00 0.00 46 1013.3
20260906203510 33 86 0.0 8.0 0.00 0.00 0.00 49 1013.3
20260906203011 33 82 1.6 8.0 0.00 0.00 0.00 46 1013.3
20260906202519 33 106 0.0 8.0 0.00 0.00 0.00 46 1013.3
20260906202009 33 111 1.6 8.0 0.00 0.00 0.00 46 1013.5
20260906201514 34 172 1.6 8.0 0.00 0.00 0.00 46 1013.4
20260906201009 34 247 0.0 8.0 0.00 0.00 0.00 45 1013.5
20260906200514 35 232 1.6 12.9 0.00 0.00 0.00 48 1013.7
20260906200022 35 197 3.2 12.9 0.00 0.00 0.00 47 1013.7
20260906195509 33 214 3.2 8.0 0.00 0.00 0.00 48 1013.7
20260906195013 34 123 1.6 8.0 0.00 0.00 0.00 46 1013.7
20260906194526 35 208 3.2 6.4 0.00 0.00 0.00 47 1013.8
20260906194011 35 186 1.6 8.0 0.00 0.00 0.00 45 1013.9
20260906193515 35 143 1.6 8.0 0.00 0.00 0.00 48 1013.8
20260906193030 36 110 1.6 8.0 0.00 0.00 0.00 46 1013.8
20260906192510 35 184 1.6 8.0 0.00 0.00 0.00 49 1013.9
20260906192017 35 61 3.2 6.4 0.00 0.00 0.00 50 1014.1
20260906191531 35 1 1.6 6.4 0.00 0.00 0.00 48 1014.1
20260906191009 35 11 1.6 8.0 0.00 0.00 0.00 48 1014.2
20260906190512 35 1 1.6 8.0 0.00 0.00 0.00 47 1014.2
20260906190019 35 103 1.6 6.4 0.00 0.00 0.00 50 1014.2
20260906185514 34 183 1.6 6.4 0.00 0.00 0.00 49 1014.3
20260906185011 35 39 3.2 8.0 0.00 0.00 0.00 49 1014.3
20260906184526 33 115 1.6 8.0 0.00 0.00 0.00 49 1014.3
20260906184011 34 145 0.0 6.4 0.00 0.00 0.00 50 1014.3
20260906183514 34 250 1.6 4.8 0.00 0.00 0.00 48 1014.4
20260906183042 34 181 1.6 4.8 0.00 0.00 0.00 47 1014.5
20260906182514 34 180 0.0 4.8 0.00 0.00 0.00 45 1014.5
20260906182017 33 180 0.0 6.4 0.00 0.00 0.00 45 1014.6
20260906181531 33 179 0.0 9.7 0.00 0.00 0.00 50 1014.7
20260906181013 33 193 4.8 9.7 0.00 0.00 0.00 52 1014.8
20260906180519 32 146 0.0 8.0 0.00 0.00 0.00 54 1014.9
20260906180031 31 103 1.6 8.0 0.00 0.00 0.00 52 1015.0
20260906175511 31 56 1.6 8.0 0.00 0.00 0.00 54 1015.1
20260906175011 32 108 0.0 6.4 0.00 0.00 0.00 58 1015.2
20260906174523 31 114 1.6 4.8 0.00 0.00 0.00 61 1015.3
20260906174011 31 97 0.0 6.4 0.00 0.00 0.00 60 1015.5
20260906173514 31 97 0.0 6.4 0.00 0.00 0.00 61 1015.5
20260906173014 32 88 3.2 8.0 0.00 0.00 0.00 61 1015.6
20260906172515 32 217 1.6 8.0 0.00 0.00 0.00 62 1015.7
20260906172015 32 218 3.2 8.0 0.00 0.00 0.00 64 1015.8
20260906171518 31 120 1.6 6.4 0.00 0.00 0.00 66 1016.0
20260906171016 30 105 1.6 8.0 0.00 0.00 0.00 69 1016.0
20260906170516 30 109 1.6 8.0 0.00 0.00 0.00 70 1016.1
20260906170028 30 146 1.6 6.4 0.00 0.00 0.00 69 1016.1
20260906165516 29 158 0.0 8.0 0.00 0.00 0.00 72 1016.1
20260906165017 29 172 0.0 8.0 0.00 0.00 0.00 71 1016.1
20260906164519 29 193 1.6 6.4 0.00 0.00 0.00 70 1016.2
20260906164010 29 134 0.0 4.8 0.00 0.00 0.00 70 1016.2
20260906163512 29 134 0.0 4.8 0.00 0.00 0.00 69 1016.1
20260906163020 29 134 1.6 4.8 0.00 0.00 0.00 70 1016.1
20260906162514 29 136 0.0 4.8 0.00 0.00 0.00 70 1016.2
20260906162018 29 136 0.0 4.8 0.00 0.00 0.00 70 1016.2
20260906161524 29 136 0.0 0.0 0.00 0.00 0.00 70 1016.2
20260906161013 29 136 0.0 3.2 0.00 0.00 0.00 71 1016.2
20260906160516 28 136 0.0 3.2 0.00 0.00 0.00 71 1016.2
20260906160026 28 136 0.0 3.2 0.00 0.00 0.00 71 1016.2
20260906155517 28 137 0.0 0.0 0.00 0.00 0.00 71 1016.1
20260906155017 28 137 0.0 0.0 0.00 0.00 0.00 73 1016.0
20260906154526 28 137 0.0 3.2 0.00 0.00 0.00 72 1016.0
20260906154018 28 137 0.0 4.8 0.00 0.00 0.00 71 1015.9
20260906153520 28 137 0.0 4.8 0.00 0.00 0.00 71 1015.8
20260906153031 28 138 0.0 3.2 0.00 0.00 0.00 71 1015.8
20260906152512 28 134 0.0 6.4 0.00 0.00 0.00 72 1015.6
20260906152014 28 134 0.0 6.4 0.00 0.00 0.00 72 1015.6
20260906151529 28 28 0.0 0.0 0.00 0.00 0.00 72 1015.5
20260906151016 28 202 0.0 0.0 0.00 0.00 0.00 72 1015.5
20260906150516 28 202 0.0 0.0 0.00 0.00 0.00 72 1015.4
20260906150039 28 212 0.0 0.0 0.00 0.00 0.00 72 1015.4
20260906145516 27 212 0.0 0.0 0.00 0.00 0.00 72 1015.4
20260906145012 28 212 0.0 0.0 0.00 0.00 0.00 73 1015.4
20260906144531 27 212 0.0 0.0 0.00 0.00 0.00 74 1015.4
20260906144018 27 212 0.0 0.0 0.00 0.00 0.00 74 1015.3
20260906143514 27 212 0.0 0.0 0.00 0.00 0.00 75 1015.3
20260906143013 27 212 0.0 0.0 0.00 0.00 0.00 75 1015.3
20260906142506 27 212 0.0 0.0 0.00 0.00 0.00 77 1015.3
20260906142016 27 212 0.0 0.0 0.00 0.00 0.00 77 1015.2
20260906141520 27 214 0.0 0.0 0.00 0.00 0.00 78 1015.2
20260906141008 26 214 0.0 0.0 0.00 0.00 0.00 79 1015.2
20260906140513 26 214 0.0 0.0 0.00 0.00 0.00 79 1015.2
20260906140028 26 214 0.0 0.0 0.00 0.00 0.00 79 1015.2
20260906135509 26 214 0.0 0.0 0.00 0.00 0.00 80 1015.2
20260906135014 26 214 0.0 0.0 0.00 0.00 0.00 80 1015.2
20260906134540 26 214 0.0 0.0 0.00 0.00 0.00 80 1015.1
20260906134009 26 214 0.0 0.0 0.00 0.00 0.00 81 1015.1
20260906133515 26 214 0.0 0.0 0.00 0.00 0.00 81 1015.1
20260906133048 26 214 0.0 0.0 0.00 0.00 0.00 82 1015.1
20260906132510 26 214 0.0 0.0 0.00 0.00 0.00 81 1015.0
20260906132012 26 214 0.0 0.0 0.00 0.00 0.00 81 1014.8
20260906131518 26 214 0.0 0.0 0.00 0.00 0.00 80 1014.7
20260906131017 26 214 0.0 0.0 0.00 0.00 0.00 81 1014.7
20260906130514 26 214 0.0 0.0 0.00 0.00 0.00 81 1014.5
20260906130026 26 214 0.0 0.0 0.00 0.00 0.00 80 1014.5
20260906125510 26 214 0.0 0.0 0.00 0.00 0.00 81 1014.4
20260906125020 26 214 0.0 0.0 0.00 0.00 0.00 81 1014.3
20260906124530 25 214 0.0 0.0 0.00 0.00 0.00 82 1014.3
20260906124012 25 214 0.0 0.0 0.00 0.00 0.00 83 1014.2
20260906123515 25 214 0.0 0.0 0.00 0.00 0.00 83 1014.2
20260906123032 25 214 0.0 0.0 0.00 0.00 0.00 84 1014.0
20260906122513 25 214 0.0 0.0 0.00 0.00 0.00 84 1014.0
20260906122016 25 214 0.0 0.0 0.00 0.00 0.00 84 1013.9
20260906121532 24 214 0.0 0.0 0.00 0.00 0.00 84 1013.8
20260906121015 24 214 0.0 0.0 0.00 0.00 0.00 84 1013.7
20260906120510 24 214 0.0 0.0 0.00 0.00 0.00 84 1013.6
20260906120004 24 214 0.0 0.0 0.00 0.00 0.00 84 1013.5
20260906115503 24 214 0.0 0.0 0.00 0.00 0.00 84 1013.4
20260906115004 24 214 0.0 0.0 0.00 0.00 0.00 84 1013.3
20260906114508 24 214 0.0 0.0 0.00 0.00 0.00 84 1013.1
20260906114002 24 214 0.0 0.0 0.00 0.00 0.00 84 1013.3
20260906113504 24 214 0.0 0.0 0.00 0.00 0.00 84 1013.3
20260906113004 24 214 0.0 0.0 0.00 0.00 0.00 83 1013.2
20260906112504 24 214 0.0 0.0 0.00 0.00 0.00 83 1013.2
20260906112004 24 214 0.0 0.0 0.00 0.00 0.00 83 1013.1
20260906111505 24 214 0.0 0.0 0.00 0.00 0.00 83 1013.2
20260906111004 24 214 0.0 0.0 0.00 0.00 0.00 83 1013.1
20260906110506 24 214 0.0 0.0 0.00 0.00 0.00 82 1013.1
20260906110004 25 214 0.0 0.0 0.00 0.00 0.00 82 1013.0
20260906105503 25 214 0.0 0.0 0.00 0.00 0.00 81 1013.0
20260906105004 25 214 0.0 0.0 0.00 0.00 0.00 81 1013.0
20260906104506 25 214 0.0 0.0 0.00 0.00 0.00 81 1013.1
20260906104003 25 214 0.0 0.0 0.00 0.00 0.00 80 1013.0
20260906103503 25 214 0.0 0.0 0.00 0.00 0.00 80 1013.0
20260906103004 25 214 0.0 0.0 0.00 0.00 0.00 80 1012.8
20260906102503 25 214 0.0 0.0 0.00 0.00 0.00 80 1012.9
20260906102006 25 214 0.0 0.0 0.00 0.00 0.00 79 1012.9
20260906101508 25 214 0.0 0.0 0.00 0.00 0.00 79 1012.8
20260906101004 25 214 0.0 0.0 0.00 0.00 0.00 79 1012.7
20260906100503 25 214 0.0 0.0 0.00 0.00 0.00 78 1012.7
20260906100006 26 214 0.0 0.0 0.00 0.00 0.00 78 1012.7
20260906095506 26 214 0.0 0.0 0.00 0.00 0.00 78 1012.7
20260906095006 26 214 0.0 0.0 0.00 0.00 0.00 78 1012.8
20260906094508 26 214 0.0 0.0 0.00 0.00 0.00 77 1012.9
20260906094006 26 214 0.0 0.0 0.00 0.00 0.00 77 1012.7
20260906093507 26 214 0.0 0.0 0.00 0.00 0.00 77 1012.7
20260906093006 26 215 0.0 0.0 0.00 0.00 0.00 77 1012.7
20260906092508 26 217 0.0 4.8 0.00 0.00 0.00 76 1012.7
20260906092008 26 223 0.0 4.8 0.00 0.00 0.00 76 1012.7
20260906091504 26 228 0.0 3.2 0.00 0.00 0.00 76 1012.6
20260906091003 26 229 0.0 4.8 0.00 0.00 0.00 76 1012.6
20260906090508 26 229 0.0 4.8 0.00 0.00 0.00 76 1012.7
20260906090008 26 191 0.0 4.8 0.00 0.00 0.00 76 1012.7
20260906085506 26 198 0.0 6.4 0.00 0.00 0.00 76 1012.7
20260906085006 26 198 0.0 6.4 0.00 0.00 0.00 75 1012.7
20260906084510 26 210 0.0 4.8 0.00 0.00 0.00 75 1012.6
20260906084008 27 210 0.0 8.0 0.00 0.00 0.00 75 1012.7
20260906083508 27 217 1.6 8.0 0.00 0.00 0.00 75 1012.8
20260906083011 27 221 0.0 6.4 0.00 0.00 0.00 75 1012.7
20260906082508 27 193 0.0 6.4 0.00 0.00 0.00 74 1012.7
20260906082008 27 195 0.0 6.4 0.00 0.00 0.00 74 1012.7
20260906081509 27 175 0.0 1.6 0.00 0.00 0.00 74 1012.8
20260906081005 27 212 0.0 8.0 0.00 0.00 0.00 74 1012.8
20260906080509 27 204 3.2 8.0 0.00 0.00 0.00 74 1012.7
20260906080008 27 200 0.0 6.4 0.00 0.00 0.00 74 1012.8
20260906075507 27 206 0.0 6.4 0.00 0.00 0.00 74 1012.9
20260906075006 27 207 1.6 8.0 0.00 0.00 0.00 74 1012.8
20260906074508 27 209 1.6 8.0 0.00 0.00 0.00 74 1013.0
20260906074016 27 200 1.6 6.4 0.00 0.00 0.00 74 1013.1
20260906073513 27 200 0.0 8.0 0.00 0.00 0.00 74 1013.1
20260906073016 27 205 0.0 8.0 0.00 0.00 0.00 74 1013.2
20260906072508 27 205 0.0 8.0 0.00 0.00 0.00 74 1013.2
20260906072007 27 179 0.0 4.8 0.00 0.00 0.00 74 1013.4
20260906071511 27 179 0.0 4.8 0.00 0.00 0.00 74 1013.3
20260906071013 27 179 0.0 4.8 0.00 0.00 0.00 74 1013.4
20260906070507 27 165 0.0 0.0 0.00 0.00 0.00 74 1013.4
20260906070012 27 165 0.0 3.2 0.00 0.00 0.00 74 1013.6
20260906065507 27 166 0.0 6.4 0.00 0.00 0.00 74 1013.5
20260906065010 27 167 0.0 6.4 0.00 0.00 0.00 74 1013.6
20260906064508 27 138 0.0 3.2 0.00 0.00 0.00 74 1013.7
20260906064006 27 138 0.0 3.2 0.00 0.00 0.00 74 1013.7
20260906063510 27 133 0.0 3.2 0.00 0.00 0.00 74 1013.7
20260906063012 27 133 0.0 3.2 0.00 0.00 0.00 74 1013.7
20260906062507 27 132 0.0 0.0 0.00 0.00 0.00 74 1013.7
20260906062007 27 132 0.0 0.0 0.00 0.00 0.00 74 1013.6
20260906061518 27 132 0.0 0.0 0.00 0.00 0.00 74 1013.6
20260906061007 27 132 0.0 0.0 0.00 0.00 0.00 74 1013.6
20260906060513 27 132 0.0 0.0 0.00 0.00 0.00 74 1013.7
20260906060013 27 132 0.0 0.0 0.00 0.00 0.00 74 1013.8
20260906055511 27 132 0.0 0.0 0.00 0.00 0.00 74 1013.9
20260906055011 27 132 0.0 0.0 0.00 0.00 0.00 73 1014.0
20260906054515 27 132 0.0 0.0 0.00 0.00 0.00 73 1013.9
20260906054003 27 132 0.0 0.0 0.00 0.00 0.00 73 1013.7
20260906053504 27 132 0.0 0.0 0.00 0.00 0.00 73 1013.7
20260906053012 27 132 0.0 0.0 0.00 0.00 0.00 73 1013.7
20260906052504 27 132 0.0 0.0 0.00 0.00 0.00 73 1013.8
20260906052007 27 132 0.0 0.0 0.00 0.00 0.00 73 1013.8
20260906051517 27 132 0.0 4.8 0.00 0.00 0.00 72 1013.8
20260906051004 27 132 0.0 4.8 0.00 0.00 0.00 72 1013.8
20260906050503 27 132 0.0 3.2 0.00 0.00 0.00 72 1013.9
20260906050004 27 131 0.0 1.6 0.00 0.00 0.00 72 1014.1
20260906045505 27 131 0.0 3.2 0.00 0.00 0.00 72 1014.1
20260906045003 27 131 0.0 3.2 0.00 0.00 0.00 72 1014.1
20260906044503 27 129 0.0 0.0 0.00 0.00 0.00 72 1014.2
20260906044005 27 129 0.0 0.0 0.00 0.00 0.00 71 1014.0
20260906043503 27 129 0.0 0.0 0.00 0.00 0.00 71 1014.0
20260906043004 27 135 0.0 0.0 0.00 0.00 0.00 71 1014.0
20260906042505 27 110 0.0 0.0 0.00 0.00 0.00 71 1013.9
20260906042007 27 110 0.0 3.2 0.00 0.00 0.00 70 1013.9
20260906041506 27 106 0.0 4.8 0.00 0.00 0.00 70 1013.8
20260906041007 28 109 0.0 4.8 0.00 0.00 0.00 70 1013.7
20260906040515 28 103 0.0 6.4 0.00 0.00 0.00 69 1013.7
20260906040005 28 67 0.0 8.0 0.00 0.00 0.00 69 1013.8
20260906035503 28 65 0.0 8.0 0.00 0.00 0.00 68 1013.7
20260906035003 28 82 1.6 9.7 0.00 0.00 0.00 67 1013.7
20260906034509 28 122 0.0 9.7 0.00 0.00 0.00 66 1013.7
20260906034004 28 38 0.0 11.3 0.00 0.00 0.00 66 1013.9
20260906033504 28 120 1.6 11.3 0.00 0.00 0.00 65 1013.7
20260906033005 28 91 0.0 6.4 0.00 0.00 0.00 65 1013.8
20260906032503 28 75 0.0 6.4 0.00 0.00 0.00 64 1013.9
20260906032005 29 99 0.0 6.4 0.00 0.00 0.00 64 1013.8
20260906031504 29 63 1.6 9.7 0.00 0.00 0.00 63 1013.9
20260906031007 29 1 1.6 9.7 0.00 0.00 0.00 63 1013.8
20260906030508 29 68 0.0 8.0 0.00 0.00 0.00 62 1013.7
20260906030005 29 74 1.6 9.7 0.00 0.00 0.00 62 1013.6
20260906025508 29 88 0.0 9.7 0.00 0.00 0.00 61 1013.5
20260906025011 30 38 1.6 8.0 0.00 0.00 0.00 60 1013.3
20260906024505 30 27 1.6 8.0 0.00 0.00 0.00 59 1013.1
20260906024001 30 48 1.6 12.9 0.00 0.00 0.00 58 1013.1
20260906023505 30 83 3.2 12.9 0.00 0.00 0.00 57 1012.9
20260906023012 30 74 1.6 9.7 0.00 0.00 0.00 57 1012.8
20260906022503 30 77 0.0 11.3 0.00 0.00 0.00 56 1012.7
20260906022007 30 163 1.6 11.3 0.00 0.00 0.00 56 1012.7
20260906021510 30 85 3.2 11.3 0.00 0.00 0.00 56 1012.6
20260906021008 30 65 0.0 6.4 0.00 0.00 0.00 55 1012.6
20260906020507 30 6 1.6 6.4 0.00 0.00 0.00 55 1012.5
20260906020010 31 63 1.6 8.0 0.00 0.00 0.00 55 1012.4
20260906015511 31 28 1.6 9.7 0.00 0.00 0.00 55 1012.2
20260906015004 31 66 1.6 9.7 0.00 0.00 0.00 55 1012.1
20260906014508 31 2 0.0 8.0 0.00 0.00 0.00 54 1012.0
20260906014011 31 127 3.2 12.9 0.00 0.00 0.00 54 1011.9
20260906013502 31 81 3.2 12.9 0.00 0.00 0.00 53 1012.0
20260906013008 31 18 3.2 16.1 0.00 0.00 0.00 53 1011.9
20260906012502 31 111 4.8 16.1 0.00 0.00 0.00 52 1011.9
20260906012002 31 40 3.2 14.5 0.00 0.00 0.00 53 1011.7
20260906011506 32 38 1.6 8.0 0.00 0.00 0.00 53 1011.7
20260906011006 32 86 3.2 8.0 0.00 0.00 0.00 52 1011.7
20260906010503 32 40 1.6 8.0 0.00 0.00 0.00 52 1011.8
20260906010010 32 77 1.6 11.3 0.00 0.00 0.00 52 1011.8
20260906005509 32 137 1.6 12.9 0.00 0.00 0.00 52 1011.8
20260906005003 32 22 3.2 12.9 0.00 0.00 0.00 51 1011.8
20260906004513 32 1 3.2 12.9 0.00 0.00 0.00 51 1011.7
20260906004012 32 4 1.6 9.7 0.00 0.00 0.00 51 1011.7
20260906003503 33 1 3.2 11.3 0.00 0.00 0.00 50 1011.7
20260906003014 33 1 1.6 14.5 0.00 0.00 0.00 50 1011.6
20260906002515 33 26 3.2 14.5 0.00 0.00 0.00 49 1011.5
20260906002007 33 62 4.8 14.5 0.00 0.00 0.00 49 1011.6
20260906001514 33 48 3.2 8.0 0.00 0.00 0.00 48 1011.5
20260906001002 33 360 1.6 8.0 0.00 0.00 0.00 47 1011.5
20260906000504 33 2 1.6 11.3 0.00 0.00 0.00 46 1011.4
20260906000008 33 21 1.6 11.3 0.00 0.00 0.00 44 1011.5
20260905235503 33 64 0.0 1.6 0.00 0.00 0.00 43 1011.5